Home > Weather > Sfax > Past weeks

Flag for Tunisia Past Weather in Sfax, Tunisia — Yesterday and Last 2 Weeks

Now
72 °F

Sunny.


Feels Like: 77 °F
Forecast: 61 / 87 °F
Wind: 12 mph from East

Location: Sfax El-Maou

Current Time: May 24, 2016 at 6:54:00 PM

Latest Report: May 24, 2016 at 6:00 PM


Visibility: 10 mi

Pressure: 29.95 "Hg

Humidity: 47%

Dew Point: 50 °F

Location of SfaxLocation

Past Weather in Sfax — Graph

°F

Sfax Temperature Yesterday

Maximum temperature yesterday: 93 °F (at 12:00 PM)
Minimum temperature yesterday: 68 °F (at 1:00 AM)
Average temperature yesterday: 76 °F

High & Low Weather Summary for the Past Weeks

 TemperatureHumidityPressure
High99 °F (May 11, 12:00 PM)94% (May 10, 5:00 AM)30.15 "Hg (May 10, 5:00 AM)
Low59 °F (May 14, 11:00 PM)23% (May 23, 12:00 PM)29.59 "Hg (May 11, 9:00 PM)
Average72 °F60%29.96 "Hg
* Reported May 9 5:00 PM — May 24 5:00 PM, Sfax, Weather by CustomWeather, © 2016

Note: Actual official high and low records may vary slightly from our data, if they occured in-between our weather recording intervals... More about our weather records

Advertising

Sfax Weather History for the Previous 24 Hours

Scroll right to see more
 ConditionsComfort  
Time TempWeatherWind HumidityBarometerVisibility
5:00 PM
Tue, May 24
73 °FPassing clouds.10 mph50%29.95 "HgN/A
4:00 PM73 °FPassing clouds.13 mph44%29.98 "HgN/A
3:00 PM73 °FSunny.14 mph50%29.98 "Hg10 mi
2:00 PM73 °FSunny.14 mph50%30.01 "Hg10 mi
1:00 PM73 °FPassing clouds.14 mph50%30.01 "HgN/A
12:00 PM73 °FSunny.16 mph50%30.04 "Hg10 mi
11:00 AM73 °FPassing clouds.14 mph53%30.04 "HgN/A
10:00 AM75 °FPassing clouds.8 mph41%30.04 "HgN/A
9:00 AM73 °FPassing clouds.9 mph38%30.04 "HgN/A
8:00 AM70 °FSunny.13 mph43%30.04 "Hg10 mi
7:00 AM66 °FSunny.12 mph52%30.04 "Hg10 mi
6:00 AM64 °FSunny.7 mph56%30.04 "Hg10 mi
5:00 AM64 °FClear.7 mph56%30.04 "Hg10 mi
3:00 AM64 °FClear.9 mph60%30.04 "Hg10 mi
2:00 AM66 °FClear.8 mph56%30.07 "Hg10 mi
12:00 AM68 °FClear.10 mph53%30.07 "Hg10 mi
11:00 PM
Mon, May 23
68 °FClear.13 mph53%30.09 "Hg10 mi
10:00 PM70 °FClear.12 mph60%30.09 "Hg10 mi
9:00 PM70 °FClear.12 mph60%30.07 "Hg10 mi
8:00 PM70 °FClear.14 mph69%30.07 "Hg10 mi
7:00 PM72 °FPassing clouds.21 mph73%30.04 "HgN/A
6:00 PM77 °FSunny.17 mph51%30.01 "Hg10 mi
Weather by CustomWeather, © 2016

See weather overviewHow to use our weather pages